SCP
0 0 0 0 0 0 0 0 0 0 0 0 0 0 0 0 0 0 0 0 0 0 0 0 0 0 0 0 0 0 0 0 0 0 0 0 0 0 0 0 0 0 0
0 0 0 0 0 0 0 0 0 0 0 0 0 0 0 0 0 0 0 0 0 0 0 0 0 0 0 0 0 0 0 0 0 0 0 0 0 0 0 0 0 0 0
0 0 0 0 0 0 0 0 0 0 0 0 0 0 0 0 0 0 0 0 0 0 0 0 0 0 0 0 0 0 0 0 0 0 0 0 0 0 0 0 0 0 0
0 0 0 0 0 0 0 0 0 0 0 0 0 0 0 0 0 0 0 0 0 0 0 0 0 0 0 0 0 0 0 0 0 0 0 0 0 0 0 0 0 0 0
0 0 0 0 0 0 0 0 0 0 0 0 0 0 0 0 0 0 0 0 0 0 0 0 0 0 0 0 0 0 0 0 0 0 0 0 0 0 0 0 0 0 0
0 0 0 0 0 0 0 0 0 0 0 0 0 0 0 0 0 0 0 0 0 0 0 0 0 0 0 0 0 0 0 0 0 0 0 0 0 0 0 0 0 0 0
0 0 0 0 0 0 0 0 0 0 0 0 0 0 0 0 0 0 0 0 0 0 0 0 0 0 0 0 0 0 0 0 0 0 0 0 0 0 0 0 0 0 0
0 0 0 0 0 0 0 0 0 0 0 0 0 0 0 0 0 0 0 0 0 0 0 0 0 0 0 0 0 0 0 0 0 0 0 0 0 0 0 0 0 0 0
0 0 0 0 0 0 0 0 0 0 0 0 0 0 0 0 0 0 0 0 0 0 0 0 0 0 0 0 0 0 0 0 0 0 0 0 0 0 0 0 0 0 0
0 0 0 0 0 0 0 0 0 0 0 0 0 0 0 0 0 0 0 0 0 0 0 0 0 0 0 0 0 0 0 0 0 0 0 0 0 0 0 0 0 0 0
0 0 0 0 0 0 0 0 0 0 0 0 0 0 0 0 0 0 0 0 0 0 0 0 0 0 0 0 0 0 0 0 0 0 0 0 0 0 0 0 0 0 0
0 0 0 0 0 0 0 0 0 0 0 0 0 0 0 0 0 0 0 0 0 0 0 0 0 0 0 0 0 0 0 0 0 0 0 0 0 0 0 0 0 0 0
0 0 0 0 0 0 0 0 0 0 0 0 0 0 0 0 0 0 0 0 0 0 0 0 0 0 0 0 0 0 0 0 0 0 0 0 0 0 0 0 0 0 0
0 0 0 0 0 0 0 0 0 0 0 0 0 0 0 0 0 0 0 0 0 0 0 0 0 0 0 0 0 0 0 0 0 0 0 0 0 0 0 0 0 0 0
0 0 0 0 0 0 0 0 0 0 0 0 0 0 0 0 0 0 0 0 0 0 0 0 0 0 0 0 0 0 0 0 0 0 0 0 0 0 0 0 0 0 0
0 0 0 0 0 0 0 0 0 0 0 0 0 0 0 0 0 0 0 0 0 0 0 0 0 0 0 0 0 0 0 0 0 0 0 0 0 0 0 0 0 0 0
0 0 0 0 0 0 0 0 0 0 0 0 0 0 0 0 0 0 0 0 0 0 0 0 0 0 0 0 0 0 0 0 0 0 0 0 0 0 0 0 0 0 0
0 0 0 0 0 0 0 0 0 0 0 0 0 0 0 0 0 0 0 0 0 0 0 0 0 0 0 0 0 0 0 0 0 0 0 0 0 0 0 0 0 0 0
0 0 0 0 0 0 0 0 0 0 0 0 0 0 0 0 0 0 0 0 0 0 0 0 0 0 0 0 0 0 0 0 0 0 0 0 0 0 0 0 0 0 0
0 0 0 0 0 0 0 0 0 0 0 0 0 0 0 0 0 0 0 0 0 0 0 0 0 0 0 0 0 0 0 0 0 0 0 0 0 0 0 0 0 0 0
0 0 0 0 0 0 0 0 0 0 0 0 0 0 0 0 0 0 0 0 0 0 0 0 0 0 0 0 0 0 0 0 0 0 0 0 0 0 0 0 0 0 0
0 0 0 0 0 0 0 0 0 0 0 0 0 0 0 0 0 0 0 0 0 0 0 0 0 0 0 0 0 0 0 0 0 0 0 0 0 0 0 0 0 0 0
0 0 0 0 0 0 0 0 0 0 0 0 0 0 0 0 0 0 0 0 0 0 0 0 0 0 0 0 0 0 0 0 0 0 0 0 0 0 0 0 0 0 0
0 0 0 0 0 0 0 0 0 0 0 0 0 0 0 0 0 0 0 0 0 0 0 0 0 0 0 0 0 0 0 0 0 0 0 0 0 0 0 0 0 0 0
0 0 0 0 0 0 0 0 0 0 0 0 0 0 0 0 0 0 0 0 0 0 0 0 0 0 0 0 0 0 0 0 0 0 0 0 0 0 0 0 0 0 0
0 0 0 0 0 0 0 0 0 0 0 0 0 0 0 0 0 0 0 0 0 0 0 0 0 0 0 0 0 0 0 0 0 0 0 0 0 0 0 0 0 0 0
Wind_Speed
3 3 3 3 3 3 4 4 4 5 6 6 6 7 6 6 6 5 4 10 10 10 10 11 11 11 12 12 12 12 11 11 11 11 11 11 11 11 11 11 11 11 11
4 3 3 3 3 3 4 4 5 5 5 5 6 6 6 5 6 5 5 6 10 10 9 10 10 11 11 11 11 11 10 10 10 10 10 10 10 10 10 10 10 10 10
4 4 4 3 3 3 5 5 5 4 5 5 6 6 5 5 5 5 5 4 5 9 9 9 9 9 10 10 10 10 9 9 9 9 10 10 10 10 10 10 9 9 9
4 3 4 3 3 3 4 5 4 5 4 4 4 4 4 4 5 5 5 5 4 4 6 9 9 8 8 8 8 8 8 8 8 8 8 8 8 8 9 9 9 9 9
4 3 3 3 4 4 3 4 4 4 4 4 4 4 4 4 4 4 5 5 4 4 4 7 9 8 7 7 7 7 7 7 7 7 7 7 7 7 7 8 8 8 9
4 3 3 4 4 4 4 4 5 4 4 4 5 4 4 3 3 3 3 3 3 4 4 4 4 5 8 7 6 6 6 6 5 6 6 6 6 6 5 6 6 7 7
4 3 3 4 4 4 4 5 5 5 3 3 4 3 3 3 3 2 2 2 3 3 3 3 2 2 3 7 6 6 5 5 4 4 4 4 4 4 4 4 5 5 5
4 3 4 3 4 4 5 5 5 4 2 1 3 3 1 1 2 2 2 2 2 2 2 2 2 2 2 1 3 5 4 4 3 3 3 3 2 2 2 3 3 3 4
4 3 4 4 3 4 5 5 5 5 4 1 1 3 4 3 0 1 1 1 1 1 1 1 1 1 1 1 1 3 4 3 3 3 3 3 2 2 2 2 2 2 2
3 3 4 4 4 3 4 5 4 4 5 4 1 1 1 3 3 1 1 1 1 1 1 1 1 0 0 0 1 2 3 3 3 3 3 3 3 3 3 3 2 2 2
2 3 3 4 4 3 4 4 4 4 4 4 3 2 2 1 1 3 2 1 1 1 1 1 1 1 0 0 1 2 2 3 3 4 4 4 4 4 4 4 4 3 3
1 2 2 3 4 3 4 4 4 5 4 4 3 3 3 3 2 2 2 2 2 2 2 2 2 1 1 1 1 2 2 3 3 4 5 5 4 5 5 5 5 4 4
1 2 2 3 3 3 4 4 4 4 4 5 4 3 3 2 2 2 2 2 1 1 2 2 2 2 1 1 1 2 3 3 4 4 5 5 5 5 5 5 5 5 5
2 3 2 3 3 3 3 3 3 4 4 4 4 4 3 3 3 3 3 3 1 1 2 3 1 2 2 2 2 2 2 4 4 5 5 5 5 5 4 5 5 6 5
2 2 3 2 3 4 4 4 3 4 4 4 4 3 3 2 2 2 3 3 4 3 4 3 2 2 2 2 3 2 2 4 4 5 5 4 4 4 4 5 5 5 5
3 3 3 3 3 4 4 4 3 3 4 4 3 3 3 2 2 2 3 2 3 4 4 3 3 2 2 2 3 2 3 5 5 5 5 5 5 5 5 5 5 5 5
4 4 4 4 4 4 4 4 4 4 4 4 4 4 4 3 3 3 2 2 3 3 3 2 1 1 2 2 2 2 2 3 3 5 5 5 5 5 5 5 5 5 5
4 4 4 4 4 4 5 5 5 5 5 5 5 5 5 3 4 3 3 4 3 3 4 4 2 2 3 3 2 2 2 2 2 5 6 6 5 5 5 5 4 5 5
4 4 5 5 5 5 5 6 6 5 5 5 5 6 5 5 5 4 4 4 3 3 3 3 3 2 1 2 1 1 1 1 2 3 5 6 5 5 5 4 4 5 5
4 4 5 5 5 5 5 5 6 5 5 5 5 5 5 6 6 6 5 5 4 3 3 3 3 2 2 2 2 2 1 1 1 2 3 4 4 4 4 5 5 5 5
4 4 4 4 4 5 5 6 5 5 5 5 4 4 5 5 7 6 5 5 5 4 4 4 3 2 2 3 3 2 2 1 1 1 1 1 1 1 2 4 4 4 4
3 3 4 4 4 4 6 8 6 5 5 5 4 4 4 5 6 7 8 8 8 6 6 5 4 4 4 4 3 3 2 1 2 1 1 1 1 1 1 1 4 4 3
3 3 3 4 4 5 7 7 7 5 5 5 5 4 3 4 4 3 4 5 6 7 7 6 6 5 5 5 4 4 3 3 3 2 1 2 1 2 2 2 4 4 4
3 3 3 4 3 4 6 6 5 4 4 4 5 5 5 4 4 4 3 3 3 4 5 4 5 5 4 4 5 5 4 2 0 1 1 1 1 2 2 2 4 4 4
3 3 3 3 4 4 5 5 4 3 3 3 3 4 4 4 6 6 4 4 3 2 3 4 4 3 4 4 3 3 3 2 1 1 1 1 1 1 1 1 2 3 3
2 2 2 3 3 3 4 5 4 3 3 2 2 3 5 5 5 5 4 5 4 3 3 2 2 1 1 2 3 3 4 3 2 2 2 1 1 0 1 1 1 1 2
Wind_Direction
104 99 89 84 79 80 86 83 78 79 79 76 75 77 73 64 57 48 40 52 68 81 88 91 90 87 84 83 80 76 74 73 71 69 68 68 67 65 64 63 62 60 59
115 109 100 92 89 89 90 91 87 86 81 80 74 70 68 63 57 54 47 41 48 62 80 89 90 88 85 83 81 77 74 73 73 71 68 67 65 63 64 63 62 59 57
118 119 114 104 96 97 99 98 91 84 84 80 72 65 63 58 56 51 47 41 35 43 60 79 86 86 86 84 82 78 74 71 74 72 68 65 62 60 61 61 59 58 56
109 117 123 121 113 106 107 108 103 94 81 79 75 61 57 55 54 52 49 42 37 33 40 59 68 75 83 87 84 80 75 71 71 71 68 64 61 59 58 58 56 54 53
110 112 124 124 121 110 107 113 104 107 104 91 80 64 51 49 47 53 52 44 41 39 35 44 48 55 65 77 82 80 76 72 67 65 65 61 57 55 57 56 53 50 48
115 110 121 127 125 120 115 114 114 100 107 109 89 67 48 41 45 46 46 43 41 43 42 43 38 38 48 57 67 73 74 73 66 62 61 56 52 51 51 51 50 47 43
128 122 124 134 134 134 137 131 123 115 108 120 101 75 41 44 50 39 32 45 42 36 43 46 45 40 34 42 45 58 61 61 57 57 53 47 43 42 43 46 43 39 36
141 138 140 147 147 137 136 138 134 128 125 138 127 123 96 15 19 29 27 44 35 29 40 43 55 52 43 31 28 40 44 41 37 33 29 22 13 20 30 28 28 26 23
152 143 154 151 154 156 159 160 155 146 153 162 107 147 154 191 244 347 359 17 12 35 16 14 62 63 54 36 353 11 27 18 2 356 346 342 344 339 343 346 354 360 358
159 156 160 160 162 166 171 173 167 158 154 165 147 50 100 147 155 188 311 328 346 359 328 341 359 5 86 59 346 351 4 353 334 329 319 316 320 318 312 300 290 304 312
167 162 167 169 168 172 178 179 172 172 169 169 166 151 112 70 112 154 214 274 310 281 265 265 257 244 257 171 280 303 329 322 314 316 308 303 306 310 314 305 289 286 290
169 178 180 179 176 175 183 189 188 183 182 174 165 164 163 164 179 165 180 212 239 267 265 254 240 233 232 222 271 301 302 302 302 307 306 305 313 315 315 314 298 288 290
201 206 199 191 185 186 187 187 190 192 187 184 183 183 182 181 168 162 160 183 222 273 275 259 241 233 231 220 244 277 283 287 292 294 299 305 312 319 322 318 313 306 297
210 200 200 202 190 187 188 186 195 199 191 193 197 188 183 185 177 176 170 163 177 261 258 256 257 230 233 225 240 253 263 279 285 287 294 301 306 313 317 313 308 309 305
200 189 201 200 196 189 188 185 198 202 193 194 197 194 192 190 188 186 177 177 171 202 235 236 236 231 228 221 234 216 238 261 274 281 286 289 293 298 301 303 303 306 311
189 188 196 200 199 193 190 188 192 197 194 195 188 190 201 191 186 183 185 194 192 187 220 224 223 222 222 229 236 218 237 260 264 271 279 281 278 279 285 288 292 298 303
193 195 198 199 199 195 192 191 195 192 195 199 191 192 203 194 189 191 186 188 200 186 209 236 223 221 206 213 244 240 232 232 249 262 268 272 268 268 273 276 285 292 295
204 202 202 202 202 200 197 194 199 197 198 203 201 196 203 197 199 195 193 198 204 199 193 212 214 209 222 211 214 233 253 248 245 262 264 266 266 263 267 269 275 283 288
209 204 200 205 204 204 202 200 200 201 206 208 205 203 203 196 205 204 203 203 204 204 191 190 202 199 216 205 203 242 260 259 265 263 266 264 266 266 264 268 275 280 284
205 209 206 212 207 207 207 204 201 201 206 210 209 208 206 204 206 205 206 205 198 198 185 182 188 192 201 199 188 203 255 257 272 288 280 276 272 275 279 273 275 280 281
209 208 207 213 211 208 208 203 202 200 201 205 209 213 217 218 217 211 208 201 193 195 187 185 189 189 200 190 202 199 226 252 270 254 271 287 283 275 284 282 279 278 282
203 198 205 202 207 216 219 212 203 192 192 199 208 214 221 220 226 228 225 217 201 194 194 193 200 204 211 203 194 196 195 204 254 232 196 269 247 262 278 265 271 282 293
200 200 205 200 211 220 219 218 211 188 191 198 201 203 214 219 222 214 225 226 220 218 211 200 199 205 201 199 187 197 203 208 230 219 185 256 246 257 271 281 278 287 300
202 207 205 205 214 224 220 218 214 184 191 200 201 201 203 206 210 199 192 199 208 217 217 209 198 198 197 191 190 194 190 188 293 260 186 249 263 270 290 289 290 292 305
211 208 208 205 212 227 225 215 195 175 188 200 200 201 198 198 211 210 189 189 198 210 214 205 206 203 207 209 194 159 164 170 219 245 227 206 244 298 297 286 292 302 312
205 208 218 209 211 224 231 217 195 178 187 192 191 200 210 209 214 215 193 184 194 198 175 162 161 163 163 189 200 179 177 179 183 220 198 177 193 329 300 286 280 316 324